Погода Мыс Терпения

Погода Мыс Терпения : погода сейчас, прогноз погоды и архив. Всё, что Вы хотите узнать о погоде Мыс Терпения!

Поиск расширенной информации на нашем сайте:

Другие новости

Новости СМИ2

Главная страница сайта

Новости сайта

03.07.2017

Напоминаем, что на нашем специализированном сайте Метеоцентр.Азия вы можете получить высокодетализированные автоматические прогнозы погоды по пунктам России, СНГ и мира в авиационном формате (включающие направление и скорость ветра, видимость, явления погоды, количество и форму облачности, нижнюю и верхнюю границу облачности).

Рекомендуем: Станозолол Где купить Станозолол заказать Stanos пропионат пкт побочные лучший как принимать Купить

Погода Мыс Терпения - сегодня

Время (UTC), дата Ветер
(°,м/с) 
Видим.   Явления Облачность Т
(°С)
Тd
(°С)
f(%) Тe
(°С)
Pmin
(гПа)
dP
(гПа)
Po
(мм)
O2
(г/м3)
Тmin Tmax R s Состояние
почвы
18 19.09.17 240 (ЮЗ) 10-13{15}  20000 м    8/8 600 м кучево-дожд. 
[Cb cap]
+10.8 +9.3 90 +9  993.5  1.2  744  287           
21 19.09.17 230 (ЮЗ) 9-11{14}  20000 м    9/9 600 м кучево-дожд. 
[Cb cap]
+10.5 +9.3 92 +8  994.3  0.9  745  287  +10.1        влажная 
00 20.09.17 250 (З) 9-12{13}  20000 м    8/3 600 м средняя 
[Sc|Ac trans]
+11.6 +9.5 87 +11  996  1.7  746  287           
03 20.09.17 250 (З) 8-11{13}  20000 м    4/0 средняя 
[Ac lent]
+12.6 +9.9 84 +12  996.6  0.6  747  286           
06 20.09.17 280 (З) 7-10{11}  20000 м    9/1 600 м средняя, верхняя 
[Sc|As op|Cc]
+12.8 +9.6 81 +13  997.1  0.5  747  286           
09 20.09.17 270 (З) 7-9{11}  20000 м    10/3 600 м верхняя 
[Sc|Ci fib]
+11.1 +9.1 87 +9  998.8  1.7  748  288    +13.2       
12 20.09.17 270 (З) 6-7{09}  20000 м    1/1 600 м 
[Sc]
+10.5 +8.8 89 +9  1000.6  1.8  750  289           
15 20.09.17 280 (З) 7-9{12}  20000 м    1/1 600 м 
[Sc]
+11.1 +9.3 89 +9  1000.5  750  289           
18 20.09.17 270 (З) 6-8{09}  20000 м    1/1 600 м 
[Sc]
+10.8 +9.3 90 +9  1001.5  0.9  750  289           
21 20.09.17 310 (СЗ) 6-8{11}  20000 м    10/1 600 м верхняя 
[Sc|Cc]
+12 +10 88 +12  1002.9  1.5  752  288  +10.4        влажная 
00 21.09.17 290 (З) 8-10{10}  20000 м    10/0 верхняя 
[Ci]
+13.4 +10.1 80 +13  1004.1  1.2  752  287           
03 21.09.17 300 (СЗ) 8-10{14}  20000 м    1/0 верхняя 
[Ci fib]
+14.3 +10.2 76 +14  1004.8  0.7  753  286           
06 21.09.17 270 (З) 6-7{10}  20000 м    ясно 
+13.8 +9.7 76 +14  1005.9  1.1  754  287           
09 21.09.17 150 (ЮВ) 2-2{07}  20000 м    3/3 600 м 
[Sc]
+12 +8.5 79 +12  1008.2  2.3  756  290    +15.1       
12 21.09.17 190 (Ю) 5-6{07}  20000 м    3/3 600 м 
[Sc]
+10.2 +8.5 89 +9  1010.1  1.9  757  293           
15 21.09.17 210 (ЮЗ) 5-6{07}  20000 м    3/3 600 м 
[Sc]
+10.9 +8.6 86 +10  1011.3  1.1  758  292           
18 21.09.17 200 (Ю) 2-3{06}  20000 м    1/1 600 м 
[Sc]
+10.4 +8.8 90 +11  1012.3  759  293           
21 21.09.17 210 (ЮЗ) 6-8{09}  20000 м    3/3 600 м верхняя 
[Sc|Ci sp]
+11.2 +8.7 85 +10  1014.1  1.8  760  293  +9.1        влажная 
00 22.09.17 220 (ЮЗ) 4-6{08}  20000 м    8/0 средняя, верхняя 
[As trans|Ci]
+12.9 +10.4 85 +13  1015.7  1.6  761  291           
03 22.09.17 190 (Ю) 7-9{09}  20000 м    8/0 верхняя 
[Ci]
+11.9 +9.4 85 +10  1016  0.3  761  292           
06 22.09.17 190 (Ю) 6-8{09}  20000 м    8/0 верхняя 
[Cs]
+11 +9 87 +10  1016.4  0.4  762  293           
09 22.09.17 190 (Ю) 7-9{09}  20000 м    3/3 600 м 
[Sc]
+9 +8.3 95 +7  1017.1  0.7  762  296    +14.3       
12 22.09.17 190 (Ю) 6-7{09}  20000 м    1/1 600 м 
[Sc]
+9.6 +9.1 97 +8  1018  0.9  763  295           
15 22.09.17 190 (Ю) 7-8{08}  20000 м    ясно 
+8.9 +8.5 97 +7  1018.2  0.2  763  296           
18 22.09.17 200 (Ю) 7-8{09}  0500 м  туман  ясно 
+8.4 +8.2 99 +6  1017.9  -0.3  763  297           
Время (UTC), дата Ветер
(°,м/с) 
Видим.   Явления Облачность Т
(°С)
Тd
(°С)
f(%) Тe
(°С)
Pmin
(гПа)
dP
(гПа)
Po
(мм)
O2
(г/м3)
Тmin Tmax R s Состояние
почвы

Для получения пояснительной информации подведите курсор к названию столбца.

ПОГОДА Мыс Терпения - архив

Всё, что Вы хотите узнать о погоде Мыс Терпения - удобно и подробно!

Выберите нужную дату (начиная с 1 января 2015* года) и нажмите кнопку "Найти".
Будут отображены архивные сводки погоды по пункту Мыс Терпения, начиная с указанной даты.


Отображать данные в формате CSV (для использования в таблицах Excel)


Внимание! Наш архив погоды предназначен исключительно для личного некоммерческого использования в познавательных целях. Если Вам необходимы официальные справки о состоянии погоды (для производственных, юридических, коммерческих и т.п. целей), обращайтесь в органы Росгидромета.

*Примечание: данная дата относится к архиву по метеостанциям СССР (Россия, СНГ, Балтия).
Архив по метеостанциям Зарубежной Европы и Азии (кроме Китая) хранится 10 дней, по другим регионам земного шара (Китай, Африка, Америка, Австралия, Океания) - 1 день.

Мыс Терпения - район местоположения метеостанции


Название, широта, долгота, высота метеостанции:
Мыс Терпения 48.6°ш. 144.7°д. 33 м над ур. моря [Российская Федерация]

Дополнительная информация

В oтличие oт бoльшинства пoгoдных сайтoв мы публикуем пoдрoбную метеoинфoрмацию в детальнoм прoфессиoнальнoм фoрмате.

Характеристики температуры и влажнoсти вoздуха измеряются на высoте 2 м в тени вдали oт зданий и деревьев.
Скoрoсть ветра измеряется на высoте 10 м (на урoвне рoста челoвека скoрoсть ветра ниже в 1.5-2 раза). Если метеoстанция нахoдится в гoрoде или в лесу, тo скoрoсть ветра занижена на 2-4 м/с пo сравнению с oткрытым местoм. Скoрoсть ветра над акватoриями крупных рек и oзёр, а также на вершинах хoлмoв на 2-5 м/с выше, чем в oбычных услoвиях.
Атмoсфернoе давление в разных тoчках местнoсти мoжет значительнo oтличаться oт давления на метеoстанции, в зависимoсти oт услoвий рельефа (при пoдъёме на 10 м давление пoнижается примернo на 1 мм рт.ст.).